weather.gov     
National Weather Service

Terminal Aerodrome Forecast
NWS Homepage
This page is being discontinued on March 12, 2014.
The same data is available at this site. Please update your bookmarks.
Thank you, and we apologize for the inconvenience.
Please send an email to SR-SRH.Webmaster@noaa.gov with any concerns.


Current Version
Previous Version:    01  02  03  04  05  06  07  08  09  10  11  12  13  14  15  16  17  18  19  20  21  22  
[Printable]
566
FTUS44 KEPZ 301200 RRA
TAFTCS
TAF
KTCS 301202Z 3012/3112 02010KT P6SM -RA OVC025
     FM301400 03009KT P6SM VCSH BKN030
      TEMPO 3014/3018 3SM SHRA BKN015
     FM301800 VRB05KT P6SM -SHRA BKN020
     FM310200 29006KT P6SM VCSH BKN050
      TEMPO 3102/3106 3SM SHRA BKN020=


U.S. Dept. of Commerce
NOAA National Weather Service
1325 East West Highway
Silver Spring, MD 20910
E-mail: w-nws.webmaster@noaa.gov
Page last modified: May 16, 2007
NATIONAL WEATHER SERVICE: for Safety, for Work, for Fun - FOR LIFE